Regional Weather Roundup
Issued by NWS

Home | Current Version | Previous Version | Graphics & Text | Print | Product List | Glossary On
Versions: 1 2 3 4 5 6 7 8 9 10 11 12 13 14 15 16 17 18 19 20 21 22 23 24 25 26 27 28 29 30 31 32 33 34 35 36 37 38 39 40 41 42 43 44 45 46 47 48 49
000
ASUS43 KDMX 211907
RWRIA

WEATHER ROUNDUP FOR IOWA
NATIONAL WEATHER SERVICE DES MOINES IA
200 PM CDT THU AUG 21 2014

NOTE: "FAIR" INDICATES FEW OR NO CLOUDS BELOW 12,000 FEET WITH NO
SIGNIFICANT WEATHER AND/OR OBSTRUCTIONS TO VISIBILITY.

* - THESE STATIONS ARE NOT NWS STATIONS...THUS NOT UNDER NWS
QUALITY CONTROL.  THEY ALSO DO NOT REPORT WEATHER SUCH
AS PRECIPITATION OR FOG.

IAZ001>003-012>014-020>022-031>034-043>046-212000-
   NORTHWEST IOWA

CITY           SKY/WX    TMP DP  RH WIND       PRES   REMARKS
CARROLL *      SUNNY     84  75  74 S9        29.83F HX  92
CHEROKEE *     SUNNY     86  75  70 SW10      29.80F HX  95
DENISON *      SUNNY     84  73  70 VRB6      29.82R HX  91
LE MARS *      SUNNY     86  73  66 SW9       29.80S HX  93
ORANGE CITY *  SUNNY     86  70  58 W9        29.80F HX  90
SHELDON *      SUNNY     82  73  74 SW13      29.79S HX  88
SIOUX CITY     SUNNY     88  74  63 S6        29.80R HX  96
SPENCER        SUNNY     85  71  63 SW14      29.80R HX  90
STORM LAKE *   SUNNY     84  77  79 S14G20    29.83S HX  94
$$

IAZ055>058-069>071-079>083-090>094-212000-
   SOUTHWEST IOWA

CITY           SKY/WX    TMP DP  RH WIND       PRES   REMARKS
ATLANTIC *     SUNNY     84  72  65 S9G16     29.84S HX  89
AUDUBON *      SUNNY     88  79  74 SE7       29.86R HX 102
CLARINDA *     SUNNY     82  75  78 CALM      29.86R HX  89
COUNCIL BLFS * SUNNY     84  73  70 S12       29.84R HX  91
CRESTON *      SUNNY     82  73  74 S10       29.88S HX  88
HARLAN  *      SUNNY     84  73  70 S9        29.88R HX  91
LAMONI         PTSUNNY   83  73  72 S8        29.89F HX  89
RED OAK *      SUNNY     81  73  78 S5        29.85S HX  85
SHENANDOAH *   SUNNY     86  77  74 VRB5      29.84R HX  97
$$

IAZ047>049-059>061-072>074-084-212000-
   CENTRAL IOWA

CITY           SKY/WX    TMP DP  RH WIND       PRES   REMARKS
AMES           PTSUNNY   84  75  74 S12G21    29.85F HX  92
ANKENY *       SUNNY     82  75  78 S12       29.85F HX  89
CHARITON *     PTSUNNY   84  73  70 S10       29.90F HX  91
DES MOINES     PTSUNNY   84  73  69 S10       29.86F HX  90
GRINNELL*      CLOUDY    79  73  83 S13G20    29.91S HX  82
KNOXVILLE *    MOSUNNY   81  75  83 S9        29.88F HX  86
MARSHALLTOWN   PTSUNNY   80  72  76 S10       29.86S HX  84
PELLA *        PTSUNNY   81  73  78 SE6       29.90F HX  85
PERRY *          N/A     82  75  78 S10       29.85F HX  89
$$

IAZ004>006-015-016-023>025-035-036-212000-
   NORTH CENTRAL IOWA

CITY           SKY/WX    TMP DP  RH WIND       PRES   REMARKS
ALGONA *       MOSUNNY   86  72  62 S18G25    29.81R HX  92
CLARION *      SUNNY     86  72  62 S18       29.82F HX  92
ESTHERVILLE    SUNNY     83  71  67 SW16G23   29.78S HX  87
FORT DODGE *   SUNNY     86  73  66 SW15G21   29.83F HX  93
MASON CITY     MOSUNNY   86  70  58 S16G25    29.82S HX  90
FOREST CITY *  SUNNY     86  72  62 S14G21    29.80F HX  92
IOWA FALLS *     N/A     82  73  74 S18       29.86S HX  88
$$

IAZ007>011-017>019-026>030-037>042-050>054-066-212000-
   NORTHEAST IOWA

CITY           SKY/WX    TMP DP  RH WIND       PRES   REMARKS
CEDAR RAPIDS   CLOUDY    75  75 100 S7        29.88F
CHARLES CITY * MOSUNNY   79  73  83 S15G28    29.83R HX  82
CLINTON *      CLOUDY    77  73  88 W3        29.98R
DECORAH *      PTSUNNY   75  72  88 S12G18    29.86R
DUBUQUE        LGT RAIN  74  73  97 S20       29.94R FOG
MONTICELLO *   LGT RAIN  75  75 100 SE12      29.88F
OELWEIN *      SUNNY     77  73  88 S18       29.85F
WATERLOO       PTSUNNY   81  73  76 S15       29.82F HX  86
$$

IAZ064-065-067-068-078-212000-
   EAST CENTRAL IOWA

CITY           SKY/WX    TMP DP  RH WIND       PRES   REMARKS
DAVENPORT      CLOUDY    79  73  82 W8        29.95R HX  82
IOWA CITY      CLOUDY    77  75  93 SE9       29.90F
MT. PLEASANT * PTSUNNY   86  70  58 W3        29.93F HX  90
MUSCATINE *    MOSUNNY   84  73  70 NE7       29.92F HX  91
QUAD CITIES    CLOUDY    86  70  58 W8        29.93S HX  90
$$

IAZ062-063-075>077-085>089-095>099-212000-
   SOUTHEAST IOWA

CITY           SKY/WX    TMP DP  RH WIND       PRES   REMARKS
BURLINGTON     CLOUDY    85  76  74 W5        29.93S HX  94
FAIRFIELD *    MOSUNNY   84  72  65 CALM      29.94R HX  89
FORT MADISON * MOSUNNY   88  77  70 NW3       29.94F HX 100
KEOKUK *       PTSUNNY   88  75  66 SW8       29.93R HX  97
OSKALOOSA *    PTSUNNY   79  73  83 E8        29.88F HX  82
CENTERVILLE *  SUNNY     86  75  70 CALM      29.94F HX  95
OTTUMWA        LGT RAIN  81  72  74 N3        29.89F HX  85
WASHINGTON *   SUNNY     81  73  78 VRB5      29.92F HX  85
$$

ABBREVIATIONS USED IN REMARKS
   TC - TEMPERATURES IN CELSIUS
  WCI - WIND CHILL INDEX
   HX - HEAT INDEX
  VSB - VISIBILITY
$$



USA.gov is the U.S. government's official web portal to all federal, state and local government web resources and services.